Weather History for Burnet, TX

Change the Weather History Date:

Saturday, February 25, 2012

  Actual Average Record
Temperature  
Mean Temperature 48 °F -  
Max Temperature 61 °F 60 °F 91 °F (2008)
Min Temperature 34 °F 41 °F 21 °F (2003)
Degree Days  
Heating Degree Days 18    
Moisture  
Dew Point 21 °F    
Average Humidity 41    
Maximum Humidity 67    
Minimum Humidity 14    
Precipitation  
Precipitation 0.00 in - - ()
Sea Level Pressure  
Sea Level Pressure 30.33 in    
Wind  
Wind Speed 5 mph (South)    
Max Wind Speed 13 mph    
Max Gust Speed 22 mph    
Visibility 10 miles    
Events      
Averages and records for this station are not official NWS values.
T = Trace of Precipitation, MM = Missing Value Source: NWS Daily Summary

Daily Weather History Graph

Daily Weather History Graph

Search for Another Location

Airport:

Trip Planner

Search our weather history database for the weather conditions in past years. The results will help you decide how hot, cold, wet, or windy it might be!

Date:

Astronomy

Feb. 25, 2012 Rise Set
Actual Time 7:04 AM CST 6:28 PM CST
Civil Twilight 6:39 AM CST 6:52 PM CST
Nautical Twilight 6:11 AM CST 7:20 PM CST
Astronomical Twilight 5:43 AM CST 7:48 PM CST
Moon 8:48 AM CST (2/25) 10:08 PM CST (2/25)
Length of Visible Light 12h 12m
Length of Day
11h 24m
Waxing Crescent, 14% of the Moon is Illuminated
Feb 25
Waxing Crescent
Feb 29
First Quarter
Mar 8
Full
Mar 14
Last Quarter
Mar 22
New

Hourly Weather History & Observations

Time (CST) Temp. Windchill Dew Point Humidity Pressure Visibility Wind Dir Wind Speed Gust Speed Precip Events Conditions
12:53 AM 41.0 °F 38.0 °F 23.0 °F 49% 30.41 in 10.0 mi North 4.6 mph - N/A   Clear
1:53 AM 39.0 °F 36.8 °F 23.0 °F 53% 30.42 in 10.0 mi West 3.5 mph - N/A   Clear
2:53 AM 36.0 °F - 26.1 °F 67% 30.40 in 10.0 mi Calm Calm - N/A   Clear
3:53 AM 36.0 °F - 25.0 °F 64% 30.38 in 10.0 mi Calm Calm - N/A   Clear
4:53 AM 36.0 °F 32.1 °F 24.1 °F 62% 30.38 in 10.0 mi North 4.6 mph - N/A   Clear
6:53 AM 34.0 °F 28.8 °F 24.1 °F 67% 30.42 in 9.0 mi SSW 5.8 mph - N/A   Clear
7:53 AM 35.1 °F - 23.0 °F 61% 30.41 in 10.0 mi Calm Calm - N/A   Clear
8:53 AM 42.1 °F 39.2 °F 28.9 °F 60% 30.43 in 10.0 mi West 4.6 mph - N/A   Clear
9:53 AM 46.0 °F 44.8 °F 28.0 °F 50% 30.44 in 10.0 mi South 3.5 mph - N/A   Clear
10:53 AM 55.0 °F - 25.0 °F 31% 30.41 in 10.0 mi ESE 5.8 mph - N/A   Clear
11:53 AM 60.1 °F - 10.9 °F 14% 30.38 in 10.0 mi SSE 8.1 mph 16.1 mph N/A   Clear
12:53 PM 61.0 °F - 16.0 °F 17% 30.34 in 10.0 mi South 12.7 mph 18.4 mph N/A   Clear
1:53 PM 61.0 °F - 15.1 °F 17% 30.30 in 10.0 mi South 10.4 mph 21.9 mph N/A   Clear
2:53 PM 60.1 °F - 12.9 °F 16% 30.27 in 10.0 mi SE 11.5 mph 20.7 mph N/A   Clear
3:53 PM 60.1 °F - 12.9 °F 16% 30.25 in 10.0 mi South 11.5 mph 18.4 mph N/A   Clear
4:53 PM 59.0 °F - 12.9 °F 16% 30.24 in 10.0 mi SSE 8.1 mph 21.9 mph N/A   Clear
5:53 PM 57.0 °F - 17.1 °F 21% 30.23 in 10.0 mi South 6.9 mph 18.4 mph N/A   Clear
6:53 PM 52.0 °F - 19.9 °F 28% 30.24 in 10.0 mi SSE 8.1 mph - N/A   Clear
7:53 PM 50.0 °F - 23.0 °F 35% 30.25 in 10.0 mi South 6.9 mph - N/A   Clear
8:53 PM 46.9 °F - 23.0 °F 39% 30.24 in 10.0 mi South 4.6 mph - N/A   Clear
9:53 PM 45.0 °F 43.5 °F 25.0 °F 46% 30.24 in 10.0 mi South 3.5 mph - N/A   Clear
10:53 PM 43.0 °F 40.3 °F 26.1 °F 51% 30.22 in 10.0 mi South 4.6 mph - N/A   Clear
11:53 PM 42.1 °F 38.4 °F 28.0 °F 58% 30.20 in 10.0 mi South 5.8 mph - N/A   Clear